Regional Weather Roundup
Issued by NWS

Home | Current Version | Previous Version | Graphics & Text | Print | Product List | Glossary On
Versions: 1 2 3 4 5 6 7 8 9 10 11 12 13 14 15 16 17 18 19 20 21 22 23 24 25 26 27 28 29 30 31 32 33 34 35 36 37 38 39 40 41 42 43 44 45 46 47 48 49 50
000
ASUS45 KBOU 260307
RWRCO

WEATHER ROUNDUP FOR COLORADO
NATIONAL WEATHER SERVICE DENVER/BOULDER CO
900 PM MDT MON SEP 25 2017

NOTE: "FAIR" INDICATES FEW OR NO CLOUDS BELOW 12000 FEET WITH NO
SIGNIFICANT WEATHER AND/OR OBSTRUCTIONS TO VISIBILITY.

COZ001>005-013-030-031-260400-
...NORTHWEST COLORADO...

CITY           SKY/WX    TMP DP  RH WIND       PRES   REMARKS
CRAIG          FAIR      39  27  62 CALM      30.15R
HAYDEN         FAIR      41  27  57 SW6       30.16R
MEEKER         FAIR      44  28  53 CALM      30.13R
RABBIT EARS PA FAIR      30  25  80 W7        30.23R WCI  23
STEAMBOAT SPGS FAIR      39  28  64 CALM      30.15R
WALDEN         FAIR      34  27  75 N6        30.19R WCI  29
$$

COZ006>008-011-260400-
...WEST CENTRAL VALLEYS...

CITY           SKY/WX    TMP DP  RH WIND       PRES   REMARKS
GRAND JUNCTION FAIR      52  27  38 SW3       30.03R
MONTROSE       FAIR      47  34  60 S5        30.08R
EAGLE          FAIR      47  27  45 CALM      30.14R
RIFLE          FAIR      52  30  43 NW6       30.08R
DELTA          FAIR      54  31  41 E5        30.04R
NUCLA          FAIR      54  27  35 E3        30.11R
$$

COZ017>023-064>068-260400-
...SOUTHWEST COLORADO...

CITY           SKY/WX    TMP DP  RH WIND       PRES   REMARKS
DURANGO        FAIR      50  17  27 W3        30.07R
CORTEZ         FAIR      47  32  56 E6        30.05R
PAGOSA SPRINGS FAIR      44  14  29 NE6       30.13R
TELLURIDE      FAIR      40  22  47 CALM      30.19R
WOLF CREEK PAS FAIR      30   7  37 S14G21    30.32S WCI  20
$$

COZ009-010-012-014-032>034-037-058>063-260400-
...CENTRAL COLORADO...

CITY           SKY/WX    TMP DP  RH WIND       PRES   REMARKS
ASPEN          FAIR      39  26  59 S7        30.14R
BUENA VISTA    FAIR      43  36  77 E7        30.16R
COPPER MTN     FAIR      34  21  60 MISG      30.28R
BERTHOUD PASS  MOCLDY    21  12  68 NW12      30.29R WCI   9
COTTONWOOD PAS   N/A     41  37  87 CALM      30.21R
GUNNISON       FAIR      43  17  35 NW7       30.13R
KREMMLING      FAIR      46  27  46 W5        30.17R
LEADVILLE      FAIR      34  14  43 N6        30.19R WCI  29
MONARCH PASS   FAIR      32  14  47 W15       30.38S WCI  22
SALIDA         FAIR      46  38  72 SE7G16    30.21R
SUNLIGHT       FAIR      32  21  64 NW5       30.27R WCI  27
WILKERSON PASS SNOW      32  32 100 SE3       30.29R VSB<1/4
$$

COZ069>075-260400-
...SAN LUIS VALLEY/SANGRE DE CRISTO MOUNTAINS...

CITY           SKY/WX    TMP DP  RH WIND       PRES   REMARKS
ALAMOSA        FAIR      43  13  29 SW10      30.07R
DEL NORTE      FAIR      40  13  32 W7        30.11R
LA VETA PASS   FOG       36  34  93 N9        30.33R VSB<1/4
SAGUACHE       FAIR      46  21  36 NW13      30.11R
$$

COZ035-036-038>040-260400-
...NORTHERN COLORADO FRONT RANGE...

CITY           SKY/WX    TMP DP  RH WIND       PRES   REMARKS
DENVER INTL AP MOCLDY    46  42  86 E9        30.12R
DMNS CITY PARK   N/A     47  41  80 E1G9      30.12S
AURORA         MOCLDY    46  45  96 E5        30.13R
FRONT RANGE AP MOCLDY    46  45  93 E10G18    30.13R
ERIE MUNI ARPT CLOUDY    47  43  85 CALM      30.18R
BOULDER MUN AP FAIR      46  45  93 CALM      30.12R
CENTENNIAL     MOCLDY    46  44  93 W5        30.12S
BROOMFIELD     CLOUDY    50  41  71 VRB5      30.13
FORT COLLINS   MOCLDY    48  44  86 SE5       30.13R
LONGMONT       FAIR      50  42  76 CALM      30.14R
$$

COZ041-046-047-076>085-087-088-260400-
...PIKES PEAK/PALMER DIVIDE AND SOUTHERN FOOTHILLS...

CITY           SKY/WX    TMP DP  RH WIND       PRES   REMARKS
COLO. SPRINGS  RAIN      46  43  89 N10       30.16R
A. F. ACADEMY  LGT RAIN  46  40  80 NW3       30.15R
SCHRIEVER AFB  LGT RAIN  46  43  91 MISG      30.15R
CHEYENNE MTN   RAIN      44  44  98 S7        30.11R VSB 1/4
ELLICOTT       FAIR     N/A N/A N/A E7        30.13R
FALCON         RAIN      43  42  96 NE5       30.17R
FORT CARSON    CLOUDY    49  46  88 S14       30.12R
LIMON            N/A    N/A N/A N/A MISG      30.13R
MONUMENT HILL  CLOUDY    41  39  93 CALM      30.17S
CANON CITY     NOT AVBL
WALSENBURG     NOT AVBL
TRINIDAD       CLOUDY    49  48  97 E5        30.12R
$$

COZ042>045-048>051-090-091-260400-
...NORTHEAST COLORADO...

CITY           SKY/WX    TMP DP  RH WIND       PRES   REMARKS
GREELEY ARPT   FAIR      46  42  86 E6        30.14R
AKRON          CLOUDY    46  41  82 NE9       30.12R
BURLINGTON     CLOUDY    48  47  96 N7        30.10S
WRAY           CLOUDY    50  46  87 N3        30.12R
YUMA           CLOUDY    45  45 100 N3        30.12S
STERLING       CLOUDY    50  43  76 NW5       30.12R
HOLYOKE        CLOUDY    52  48  87 N3        30.13R
FORT MORGAN    CLOUDY    47  41  78 E10       30.13S
$$

COZ086-089-092>099-260400-
...SOUTHEAST COLORADO...

CITY           SKY/WX    TMP DP  RH WIND       PRES   REMARKS
PUEBLO         CLOUDY    53  47  79 SE9       30.11R
LA JUNTA       CLOUDY    52  49  89 E8        30.11R
LAMAR          CLOUDY    51  48  89 NE7       30.09R
SPRINGFIELD      N/A     49  49 100 N15       30.09R
$$



USA.gov is the U.S. government's official web portal to all federal, state and local government web resources and services.